Location: Eldred Sherwood Park Lake Dam
(42.9416°N, 93.5655°W)
Time: 20:39:34
(UTC+00:00)

Vanguard 2 - All Passes

Search period start: 08 November 2024 00:00
Search period end: 18 November 2024 00:00
Orbit: 552 x 2910 km, 32.9° (Epoch: 07 November)

Date Brightness Start Highest point End Pass type
(mag) Time Alt. Az. Time Alt. Az. Time Alt. Az.
08 Nov - 15:04:13 10° SSW 15:10:42 27° SE 15:20:05 10° E daylight
08 Nov - 17:09:40 10° WSW 17:18:57 50° SSE 17:33:24 10° E daylight
08 Nov - 19:17:19 10° W 19:29:06 53° S 19:45:32 10° ESE daylight
08 Nov - 21:26:45 10° W 21:39:49 38° SSW 21:55:05 10° SSE daylight
08 Nov - 23:40:46 10° WSW 23:49:39 16° SW 23:58:40 10° SSW visible
09 Nov - 15:17:07 10° SSW 15:23:54 32° SSE 15:34:06 10° E daylight
09 Nov - 17:23:08 10° WSW 17:32:28 52° S 17:47:04 10° ESE daylight
09 Nov - 19:30:58 10° W 19:42:40 50° SSW 19:58:51 10° SE daylight
09 Nov - 21:40:48 10° W 21:53:13 32° SSW 22:07:33 10° SSE daylight
09 Nov - 23:58:19 10° WSW 00:02:48 11° SW 00:07:21 10° SSW visible
10 Nov - 13:28:28 10° SSE 13:30:23 11° SE 13:32:29 10° ESE daylight
10 Nov - 15:30:13 10° SW 15:37:10 37° SSE 15:47:59 10° E daylight
10 Nov - 17:36:38 10° WSW 17:46:00 53° S 18:00:40 10° ESE daylight
10 Nov - 19:44:41 10° W 19:56:14 46° SSW 20:12:00 10° SE daylight
10 Nov - 21:55:07 10° W 22:06:34 27° SSW 22:19:39 10° SSE daylight
11 Nov - 13:39:42 10° S 13:43:25 15° SE 13:48:04 10° ESE daylight
11 Nov - 15:43:27 10° SW 15:50:32 41° SSE 16:01:46 10° E daylight
11 Nov - 17:50:11 10° WSW 17:59:35 52° S 18:14:11 10° ESE daylight
11 Nov - 19:58:28 10° W 20:09:45 41° SSW 20:24:57 10° SE daylight
11 Nov - 22:09:49 10° WSW 22:19:54 21° SW 22:31:13 10° S daylight
12 Nov - 13:52:02 10° S 13:56:32 20° SE 14:02:34 10° ESE daylight
12 Nov - 15:56:48 10° SW 16:03:58 44° SSE 16:15:29 10° E daylight
12 Nov - 18:03:46 10° WSW 18:13:08 49° S 18:27:36 10° ESE daylight
12 Nov - 20:12:22 10° W 20:23:16 35° SSW 20:37:40 10° SSE daylight
12 Nov - 22:25:18 10° WSW 22:33:13 16° SW 22:41:52 10° S daylight
13 Nov - 14:04:48 10° SSW 14:09:42 24° SSE 14:16:42 10° E daylight
13 Nov - 16:10:14 10° WSW 16:17:27 46° S 16:29:08 10° ESE daylight
13 Nov - 18:17:25 10° WSW 18:26:43 46° S 18:40:54 10° SE daylight
13 Nov - 20:26:25 10° W 20:36:44 30° SSW 20:50:04 10° SSE daylight
13 Nov - 22:43:16 10° SW 22:46:32 11° SW 22:49:56 10° SSW daylight
14 Nov - 14:17:49 10° SSW 14:22:58 29° SSE 14:30:37 10° E daylight
14 Nov - 16:23:42 10° WSW 16:30:57 46° S 16:42:43 10° ESE daylight
14 Nov - 18:31:07 10° W 18:40:17 41° SSW 18:54:01 10° SE daylight
14 Nov - 20:40:45 10° WSW 20:50:13 24° SSW 21:02:03 10° SSE daylight
15 Nov - 14:31:00 10° SW 14:36:19 33° SSE 14:44:25 10° E daylight
15 Nov - 16:37:14 10° WSW 16:44:30 45° S 16:56:13 10° ESE daylight
15 Nov - 18:44:54 10° W 18:53:51 36° SSW 19:06:56 10° SE daylight
15 Nov - 20:55:33 10° WSW 21:03:40 19° SSW 21:13:25 10° S daylight
16 Nov - 12:40:19 10° S 12:42:47 13° SE 12:45:42 10° ESE visible
16 Nov - 14:44:18 10° SW 14:49:43 36° SSE 14:58:06 10° ESE daylight
16 Nov - 16:50:49 10° WSW 16:58:03 43° S 17:09:36 10° ESE daylight
16 Nov - 18:58:49 10° WSW 19:07:24 31° SSW 19:19:35 10° SSE daylight
16 Nov - 21:11:21 10° WSW 21:17:07 14° SW 21:23:38 10° S daylight
17 Nov - 12:52:44 10° S 12:56:00 17° SSE 13:00:07 10° ESE daylight
17 Nov - 14:57:41 10° WSW 15:03:10 38° S 15:11:44 10° ESE daylight
17 Nov - 17:04:27 10° WSW 17:11:37 39° S 17:22:51 10° SE daylight
17 Nov - 19:12:55 10° WSW 19:20:57 25° SSW 19:31:53 10° SSE daylight
